Simultaneous Nadir Overpasses (SNOs) Predictions

Prediction of SNOs between GOES-16 and NOAA-20 Satellite Orbit:

Table of predicted SNOs for the next 14.0 days since TLE Epoch: 4/23/2022
Index Date Time (GOES-16) GOES-16 Lat,Lon NOAA-20 Lat,Lon Distance(km) Time Diff (sec)
1 04/23/2022 06:45:27 -0.03, -75.21 0.92, -79.50 488.09 80
2 04/24/2022 06:24:02 -0.03, -75.21 -0.08, -74.96 27.84 80
3 04/26/2022 18:27:15 0.03, -75.22 -0.09, -75.73 58.98 80
4 04/27/2022 18:11:11 0.03, -75.22 0.91, -71.20 457.91 80
5 04/29/2022 06:32:59 -0.02, -75.22 0.27, -76.47 142.07 80
6 04/30/2022 06:11:36 -0.03, -75.23 -0.79, -71.94 375.05 80
7 05/01/2022 18:33:32 0.02, -75.25 -0.43, -77.24 227.01 80
8 05/02/2022 18:17:27 0.03, -75.26 0.58, -72.71 290.53 80
9 05/04/2022 06:39:16 -0.02, -75.27 0.60, -77.97 308.43 80
10 05/05/2022 06:17:51 -0.02, -75.28 -0.40, -73.44 209.19 80
11 05/06/2022 18:39:49 0.02, -75.30 -0.75, -78.75 392.39 80
